Temperature
23 22 22 23 28 29 27 26 27 26 25 24 24 24 24 24 23 21 18 18 18 18 17 17 18 18 18 18 18 18 18 18 18 18 18 18 18 18 18 18 18 18 18 18 18 18 18 18 18
22 22 23 27 30 28 26 27 26 25 25 24 24 24 23 22 21 20 18 18 18 18 18 17 18 18 18 18 18 18 18 18 18 18 18 18 18 18 18 18 18 18 18 18 18 18 18 18 18
22 23 27 30 29 27 26 26 26 25 24 24 24 23 22 21 20 19 18 18 18 18 18 17 18 18 18 18 18 18 18 18 18 18 18 18 18 18 18 18 18 18 18 18 18 18 18 18 18
23 26 29 30 28 27 27 27 26 26 24 24 24 23 21 20 19 19 18 18 18 18 18 17 18 18 18 18 18 18 18 18 18 18 18 18 18 18 18 18 18 18 18 18 18 18 18 18 18
26 30 30 29 28 28 28 26 26 26 25 24 24 23 21 19 19 18 18 18 18 18 18 18 18 18 18 18 18 18 18 18 18 18 18 18 18 18 18 18 18 18 18 18 18 18 18 18 18
29 31 30 28 27 27 27 26 26 26 25 24 24 23 20 19 19 18 18 18 18 18 18 18 18 18 18 18 18 18 18 18 18 18 18 18 18 18 18 18 18 18 18 18 18 18 18 18 18
31 31 30 29 28 27 27 26 26 26 25 24 24 23 21 19 19 18 18 18 18 18 18 18 18 18 18 18 18 18 18 18 18 18 18 18 18 18 18 18 18 18 18 18 18 18 18 18 18
30 32 30 30 29 28 27 26 26 26 25 24 24 24 21 19 19 19 18 18 18 18 18 18 18 17 18 18 18 18 18 18 18 18 18 18 18 18 18 18 18 18 18 18 18 18 18 18 18
30 32 30 30 29 28 27 27 26 25 24 23 23 23 21 19 19 19 19 19 18 18 18 18 18 18 18 18 18 18 18 18 18 18 18 18 17 17 17 17 18 18 18 18 18 18 18 18 18
31 31 30 30 30 29 28 27 26 26 25 24 23 21 20 20 20 20 19 19 19 18 18 18 18 18 18 18 17 17 17 17 17 17 17 17 17 17 17 18 18 18 18 18 18 18 18 18 17
32 31 31 30 29 29 28 27 27 27 26 25 23 21 20 20 20 20 20 19 19 18 18 18 18 18 18 18 18 18 17 17 17 18 17 18 17 18 18 18 18 18 18 17 17 17 17 17 17
31 31 30 30 29 29 28 28 27 27 26 24 23 22 21 21 21 20 20 19 19 19 18 18 18 18 18 18 18 18 18 18 18 18 17 18 18 18 18 17 17 18 18 18 17 17 17 17 17
31 31 30 29 29 28 28 28 27 26 25 24 22 22 21 21 21 20 20 20 19 19 18 18 18 18 18 18 18 18 18 18 18 18 18 18 18 18 18 17 17 17 18 18 17 17 17 17 17
31 30 30 29 29 28 28 28 27 26 24 23 22 22 22 21 21 20 20 20 19 19 19 18 18 18 18 18 18 18 18 18 18 17 18 18 18 17 17 17 17 17 17 17 17 17 17 17 17
30 31 31 30 29 29 29 28 28 26 25 24 23 23 22 21 21 21 20 20 20 19 19 18 18 18 18 18 18 18 18 18 18 18 18 18 18 18 17 17 17 17 17 17 17 17 17 17 17
32 32 31 30 30 29 30 29 28 26 25 25 24 23 22 22 21 21 20 20 19 19 19 18 19 18 18 18 18 18 18 18 18 18 18 18 18 18 17 17 17 17 17 17 17 17 17 17 17
32 32 31 30 31 30 30 30 28 26 26 25 24 24 23 22 22 21 20 20 20 19 19 19 18 18 18 18 18 18 18 18 18 17 18 17 17 17 17 17 17 17 17 17 17 17 17 17 17
32 32 32 31 31 30 31 30 29 27 27 26 25 24 24 23 22 22 21 20 20 19 19 19 18 18 18 18 18 18 18 18 18 18 18 17 17 17 17 17 17 17 17 17 17 17 17 17 17
33 32 32 31 31 31 31 30 30 28 27 27 26 25 25 24 23 22 21 21 20 20 19 19 19 19 18 18 18 18 18 18 18 18 18 17 17 17 17 17 17 17 17 17 17 17 17 17 17
32 32 32 31 31 31 31 31 30 29 28 27 27 26 26 25 24 22 22 21 21 20 20 19 19 19 19 19 18 18 18 18 18 18 17 17 17 17 17 17 17 17 17 17 17 17 17 17 17
32 32 32 31 31 31 31 31 30 30 28 28 27 27 26 25 24 23 22 21 21 21 20 20 20 19 19 19 18 18 18 18 18 18 17 17 17 17 17 17 17 17 17 17 17 17 17 17 17
31 32 32 31 31 31 31 31 31 30 30 29 28 27 27 26 25 24 23 22 21 21 21 20 20 20 20 19 19 18 18 18 18 18 18 17 17 17 17 17 17 17 17 17 17 17 17 17 17
31 32 32 31 31 31 31 31 32 31 30 30 29 28 27 27 26 25 24 23 22 22 21 21 20 20 20 19 19 19 19 18 18 18 18 17 17 17 17 17 17 17 17 17 17 17 17 17 17
31 31 31 31 32 30 31 31 31 32 31 31 30 29 28 27 26 25 24 23 22 22 21 21 21 20 20 20 19 19 19 18 18 18 18 18 18 17 17 17 17 17 17 17 17 17 17 17 17
31 31 30 30 30 30 31 31 31 32 32 32 31 30 29 28 27 26 24 23 23 22 22 21 21 21 20 20 19 19 19 18 18 18 18 18 18 18 17 17 17 17 17 17 17 17 17 16 16
31 31 30 30 30 31 30 31 32 32 31 30 30 30 29 28 27 26 25 24 23 22 22 21 21 21 21 20 20 20 19 19 18 18 18 18 18 18 18 17 17 17 17 17 17 16 16 16 16
31 31 32 31 31 31 31 31 32 32 31 31 30 30 29 28 27 26 25 24 24 23 22 22 22 22 21 21 20 20 20 19 19 18 18 18 18 17 17 17 17 17 17 17 17 16 16 16 16
32 32 31 31 29 30 30 31 31 31 31 31 31 30 29 28 27 26 25 25 24 23 23 22 22 22 21 21 21 20 20 20 19 19 18 18 18 18 18 17 17 17 17 17 17 16 16 16 16
30 31 31 31 31 30 30 31 32 31 31 31 31 30 29 28 27 26 25 24 24 23 23 22 22 22 22 21 21 20 20 20 19 19 19 18 18 18 18 18 17 17 17 17 17 16 16 16 16
31 31 31 30 30 30 31 31 32 32 31 31 31 29 28 28 27 26 25 24 23 23 23 23 22 22 22 21 21 21 20 20 19 19 19 19 18 18 18 18 17 17 17 17 16 16 16 16 16
Wind_Speed
12 9 6 4 2 8 14 11 9 8 7 8 9 8 10 11 9 8 5 5 5 6 8 10 11 11 12 13 13 14 14 15 15 16 16 16 16 16 17 17 17 17 17 17 17 17 16 16 15
8 5 5 1 6 11 13 11 11 11 8 7 9 10 11 11 10 8 6 5 6 7 8 11 11 11 12 13 13 13 14 14 15 16 16 16 15 16 16 16 16 16 15 16 16 15 15 14 14
6 6 2 5 12 13 11 10 11 10 8 6 7 9 8 8 8 6 7 6 6 7 9 12 11 11 13 13 13 13 14 14 14 15 15 15 15 15 15 15 15 15 14 14 14 14 14 13 13
4 3 2 9 15 14 11 9 8 9 9 7 8 9 8 7 6 8 8 7 8 8 10 13 12 13 13 14 14 14 14 14 14 14 14 14 14 14 14 13 13 13 13 13 13 12 12 12 11
4 1 8 13 15 12 11 9 7 8 8 8 9 11 10 8 10 10 8 7 8 9 11 14 13 13 13 13 13 13 13 13 13 13 13 13 13 12 13 12 12 12 12 11 11 11 11 11 10
1 2 9 13 13 11 10 9 9 11 11 10 11 12 8 8 9 9 8 7 8 9 10 12 13 12 12 13 13 12 12 12 13 13 12 12 11 11 11 11 11 11 10 9 9 9 9 9 9
3 7 11 12 12 10 8 7 8 10 10 9 8 10 8 8 8 8 8 7 7 8 9 9 10 11 12 12 12 11 11 11 11 11 11 11 10 10 10 10 9 9 9 8 8 8 8 8 7
2 5 11 11 11 11 9 8 8 9 10 8 5 7 9 9 9 8 7 7 7 7 7 8 9 8 9 11 11 11 11 11 10 10 10 9 9 10 9 9 9 8 7 7 7 6 7 7 7
0 6 10 10 10 10 9 9 9 9 10 8 8 9 12 12 10 8 8 7 7 6 6 6 7 7 7 9 10 10 10 9 8 9 8 5 7 8 8 10 9 7 6 6 5 5 5 7 8
2 8 12 9 10 11 10 10 9 9 10 10 11 12 13 11 9 8 7 7 7 6 6 5 6 5 6 7 7 6 7 7 6 6 5 6 6 5 6 9 7 6 5 5 5 4 6 7 6
6 9 10 9 9 10 11 9 8 8 8 9 12 13 12 10 8 7 6 6 6 6 5 6 5 4 4 5 5 4 5 5 5 6 4 4 4 4 4 4 6 5 5 4 5 5 3 2 2
7 9 8 9 8 9 9 9 8 7 9 10 12 13 12 10 8 7 6 6 6 5 5 5 4 4 3 3 4 3 4 4 4 4 3 3 3 3 4 2 3 2 3 3 2 2 2 1 2
7 8 9 9 9 8 9 9 8 9 9 11 12 12 12 10 9 7 6 6 6 5 5 5 3 4 3 3 2 3 3 3 4 3 3 2 2 2 3 2 1 1 2 2 2 2 2 1 1
8 9 9 9 9 8 8 8 7 9 11 12 12 11 11 10 9 8 6 6 5 5 5 4 4 4 3 3 2 2 2 2 2 2 2 1 1 2 1 1 1 1 1 1 1 2 1 1 1
9 10 9 8 7 6 7 8 7 10 12 12 11 10 10 9 8 8 7 6 5 5 5 4 4 4 4 3 2 2 2 2 2 2 2 1 1 1 0 1 0 1 1 1 1 1 1 1 1
7 7 7 7 6 5 5 8 9 11 12 11 10 10 9 9 8 8 7 6 6 5 5 4 4 4 4 2 1 1 1 2 1 1 2 1 2 1 1 1 1 1 0 0 1 1 1 1 1
6 4 5 7 6 5 4 6 10 11 12 11 11 10 9 9 9 8 8 8 7 6 5 5 4 4 4 3 2 1 1 0 0 1 2 1 1 1 0 1 1 1 0 0 1 1 0 1 0
5 4 4 5 6 5 4 5 9 12 11 11 11 10 10 10 10 10 9 8 8 7 6 6 5 4 4 3 3 1 1 1 1 1 1 0 0 1 1 1 0 1 0 1 1 1 1 1 1
3 4 4 5 5 5 3 4 8 11 12 11 11 11 11 10 10 10 10 9 8 8 7 7 6 5 4 3 3 2 2 1 1 1 1 0 1 1 1 1 0 1 0 1 1 1 1 1 1
6 5 5 5 4 4 2 3 6 10 12 12 12 12 12 12 11 11 11 10 10 9 8 8 7 6 6 4 3 2 1 1 1 1 1 1 0 1 0 1 1 0 0 1 1 2 2 2 1
8 7 5 4 5 5 4 5 7 9 10 11 12 12 12 12 13 13 12 11 11 10 10 8 7 7 6 5 4 4 3 2 2 1 1 0 0 0 1 1 2 1 2 1 1 2 3 2 2
8 6 6 6 6 3 4 2 5 8 9 11 13 13 13 13 13 13 13 13 12 11 10 9 8 7 7 6 5 5 3 2 1 1 1 1 0 1 1 1 1 2 2 1 2 1 2 3 2
6 5 6 7 7 5 5 5 3 7 7 10 12 13 14 14 14 14 14 13 12 11 10 10 9 8 8 7 6 6 4 3 2 2 1 1 1 1 1 1 1 2 2 1 2 1 2 2 3
7 7 6 8 8 7 5 6 2 4 5 7 9 11 13 14 14 14 13 12 12 11 10 10 10 9 9 8 7 6 5 4 3 3 2 2 1 1 1 1 1 2 1 1 2 2 2 2 2
11 10 7 8 8 6 4 6 3 1 3 4 7 10 12 13 14 14 14 14 13 12 12 11 11 10 9 9 8 7 7 6 5 4 3 3 2 1 1 1 1 1 1 1 1 1 2 2 2
14 14 10 7 7 5 6 6 3 2 2 3 5 8 10 13 13 14 15 14 14 13 13 12 11 11 10 10 9 8 7 6 5 5 3 3 2 1 1 1 1 1 1 1 1 2 2 1 2
13 13 11 9 8 7 6 5 4 3 4 5 6 7 10 12 13 14 14 14 14 13 13 13 12 11 11 11 10 8 7 6 5 4 5 3 3 2 2 2 1 1 1 1 2 1 2 2 2
10 11 9 9 8 9 8 8 5 5 5 5 6 7 8 10 12 13 13 13 13 12 12 12 12 11 11 11 9 8 8 7 6 5 4 4 3 2 2 2 2 2 2 2 2 2 1 2 2
11 13 11 9 9 9 7 5 4 5 4 4 5 6 8 9 11 12 12 12 12 12 12 11 11 11 10 10 9 8 8 8 7 6 6 5 4 4 3 3 3 2 2 2 2 2 2 2 2
13 13 13 11 9 9 8 4 4 4 4 4 4 6 7 8 9 10 11 12 12 12 11 11 11 11 10 10 9 9 8 8 7 7 6 6 5 4 4 4 4 3 2 2 2 3 2 2 2
Wind_Direction
173 183 214 235 142 74 66 64 63 71 67 60 59 63 65 51 48 80 85 69 59 67 75 77 70 76 81 84 86 85 85 86 88 90 93 96 100 102 102 103 103 103 104 104 104 103 102 101 102
173 194 229 240 69 76 67 64 65 68 85 88 75 74 73 64 62 90 93 78 80 82 84 76 77 81 82 84 85 87 88 89 90 91 92 97 99 100 101 103 103 103 104 105 105 105 104 104 107
186 231 289 64 59 64 74 69 76 84 84 81 81 67 63 69 75 85 93 101 93 87 86 84 82 84 85 86 86 89 90 90 91 92 93 95 98 100 102 103 104 103 103 103 104 104 106 108 109
217 211 96 72 71 66 75 81 88 93 82 78 92 84 76 67 80 97 107 104 97 91 88 89 85 86 87 88 87 87 88 90 90 91 92 94 96 100 104 104 104 105 105 105 105 106 107 110 113
242 85 87 77 74 74 77 77 75 82 84 87 91 95 87 78 94 106 110 104 96 90 90 91 86 86 88 89 88 86 87 87 88 90 91 93 95 98 100 101 103 105 107 108 109 109 110 112 115
205 74 74 77 81 82 80 82 83 87 96 95 98 99 89 102 106 109 104 97 94 92 93 95 96 89 88 88 88 88 86 84 85 86 88 90 94 97 98 99 103 105 108 110 112 112 116 120 123
48 64 74 81 89 88 83 80 82 92 94 90 100 100 110 115 113 111 109 105 95 93 93 97 102 102 102 94 88 87 87 88 88 87 86 88 93 97 99 102 104 108 109 112 116 120 124 129 132
15 81 81 80 84 88 97 90 86 94 92 97 97 104 124 131 129 123 116 109 101 96 95 99 98 101 108 106 99 93 89 90 91 92 92 96 106 109 112 112 105 106 110 113 117 123 129 132 137
254 76 74 74 82 99 113 109 101 95 103 92 80 92 119 132 135 131 123 118 110 102 100 101 105 107 105 102 108 111 106 101 109 105 107 118 103 103 113 91 99 105 111 117 124 133 142 150 153
64 69 72 73 84 104 115 111 116 119 110 105 105 106 122 137 141 137 132 125 117 113 110 104 102 106 106 105 111 112 106 101 95 87 89 90 87 88 92 108 110 111 118 132 137 155 174 193 165
73 76 86 90 92 108 116 112 117 114 108 118 128 131 136 140 143 145 135 124 122 127 123 115 107 99 103 112 114 101 101 103 102 92 89 91 96 98 99 113 126 129 146 134 143 177 157 145 116
94 87 93 100 107 112 113 115 108 96 91 118 131 137 141 143 146 145 137 133 133 133 126 118 117 115 102 101 109 120 111 107 98 96 79 84 79 71 82 92 96 122 114 104 115 108 103 99 123
105 101 102 111 116 111 116 112 107 105 107 123 134 143 147 146 145 140 137 138 135 138 138 132 132 125 122 114 129 112 101 99 99 91 77 56 84 75 84 80 72 70 87 120 118 110 103 112 124
111 115 116 119 118 125 122 118 120 119 130 135 143 150 154 153 153 150 150 150 150 149 140 139 144 136 140 143 130 120 121 111 94 97 77 40 52 70 80 112 100 78 68 63 79 109 121 110 91
131 129 124 125 133 141 140 122 120 135 144 146 152 156 159 163 166 167 167 171 162 153 146 153 160 154 154 151 156 145 147 120 107 92 80 39 43 61 36 44 93 68 68 117 134 117 131 146 139
158 157 132 133 149 163 201 108 129 150 156 156 160 161 169 174 180 179 177 181 176 170 165 171 173 160 164 161 178 182 81 83 93 106 95 60 25 24 315 7 37 42 25 84 129 160 142 100 105
182 165 129 135 166 170 200 112 138 162 167 166 169 171 177 179 188 187 187 187 185 183 182 185 185 178 177 170 176 173 133 65 52 88 81 78 48 37 231 27 28 295 29 3 311 98 326 116 134
169 164 148 136 157 181 184 122 147 171 180 177 177 179 184 187 189 189 191 190 188 188 189 192 192 192 192 188 186 200 180 168 172 114 82 33 6 14 336 130 5 305 352 0 22 29 333 281 275
197 188 154 128 149 188 184 152 160 176 188 188 187 187 188 191 187 186 189 190 188 190 192 196 200 191 198 200 207 196 190 184 161 135 83 31 350 15 320 336 55 301 353 325 292 265 209 240 257
210 204 174 147 156 203 201 185 168 181 194 197 195 195 193 190 187 188 190 191 192 192 195 195 197 194 199 192 200 200 200 195 152 119 80 37 46 329 252 316 286 314 299 267 272 254 269 265 259
217 216 202 174 171 202 222 185 173 183 198 200 203 202 199 195 191 189 192 194 195 195 196 196 195 194 197 194 191 183 183 204 180 171 162 198 294 304 324 316 320 320 299 297 269 259 263 271 261
217 218 215 197 210 207 244 230 171 183 194 201 204 203 202 197 195 192 191 193 196 195 192 192 190 190 190 193 199 199 204 200 184 201 155 165 244 287 298 303 310 312 311 306 277 275 265 270 280
222 195 209 215 230 244 229 260 160 174 200 201 201 204 203 199 196 194 194 190 193 192 189 187 186 188 189 192 194 203 210 204 193 187 175 237 196 257 287 283 291 292 301 325 315 300 283 278 286
175 172 193 220 239 241 239 254 225 176 208 200 195 198 199 196 195 194 192 187 190 189 187 185 183 188 189 192 197 204 210 214 213 216 219 219 206 212 238 243 260 271 296 297 293 287 277 301 302
197 206 212 219 223 231 208 241 248 174 199 209 195 193 192 191 190 189 188 187 188 189 187 186 184 189 190 192 198 202 207 210 213 224 213 237 233 215 207 260 258 275 282 281 289 275 301 296 290
208 220 230 238 232 214 196 227 218 149 181 201 187 182 183 186 187 187 186 186 187 187 186 186 186 189 187 190 196 203 206 213 210 213 233 224 242 241 220 240 244 249 254 260 253 261 263 271 275
206 222 237 243 250 249 218 215 215 191 187 181 180 176 180 183 183 185 186 185 186 186 186 187 186 188 188 191 192 197 202 210 210 205 218 223 220 221 203 216 229 238 242 259 257 263 269 273 273
225 215 218 232 240 237 224 222 209 182 191 180 178 179 177 181 181 182 184 185 184 184 184 187 188 189 190 192 196 195 200 202 207 212 212 220 217 221 212 212 222 238 247 252 258 265 277 275 277
201 210 221 225 243 245 236 218 186 190 193 189 182 179 174 179 179 180 182 182 182 182 181 183 186 187 189 193 195 200 201 203 205 208 212 212 213 209 212 212 217 227 237 244 252 280 286 286 292
217 218 215 221 224 243 254 217 145 174 182 189 180 172 174 177 177 177 177 177 181 183 184 183 186 188 189 190 192 197 201 203 205 206 209 209 208 208 207 210 214 222 225 230 242 260 273 284 293
Height
1497 1497 1497 1498 1492 1494 1504 1505 1503 1505 1509 1513 1513 1512 1513 1515 1518 1529 1531 1529 1528 1526 1525 1523 1521 1521 1521 1521 1521 1521 1522 1522 1522 1523 1523 1524 1525 1526 1528 1529 1531 1532 1533 1534 1536 1537 1538 1540 1541
1499 1499 1500 1495 1489 1503 1511 1506 1507 1510 1514 1515 1516 1516 1517 1522 1526 1529 1531 1530 1529 1529 1527 1526 1524 1524 1524 1524 1524 1525 1525 1525 1526 1526 1527 1528 1529 1530 1531 1532 1534 1535 1536 1538 1539 1540 1541 1542 1543
1500 1500 1499 1491 1496 1505 1512 1509 1511 1514 1516 1516 1518 1520 1523 1528 1530 1532 1532 1532 1531 1531 1530 1527 1526 1527 1527 1527 1527 1527 1528 1529 1529 1530 1531 1531 1532 1533 1534 1536 1537 1538 1539 1540 1541 1542 1544 1544 1546
1502 1501 1497 1494 1505 1506 1508 1511 1513 1515 1518 1519 1519 1523 1528 1532 1533 1534 1534 1534 1534 1533 1533 1530 1530 1530 1530 1531 1531 1531 1531 1532 1533 1533 1534 1535 1536 1537 1538 1539 1540 1541 1542 1543 1544 1545 1546 1547 1548
1502 1497 1494 1501 1507 1508 1510 1513 1514 1515 1518 1520 1521 1526 1532 1535 1536 1536 1536 1536 1536 1536 1536 1535 1534 1534 1534 1534 1534 1534 1535 1535 1536 1536 1537 1538 1539 1540 1540 1541 1542 1543 1544 1545 1546 1547 1548 1549 1550
1500 1493 1497 1507 1511 1511 1513 1516 1516 1517 1521 1523 1524 1528 1535 1538 1538 1538 1538 1538 1539 1539 1539 1538 1537 1537 1537 1538 1538 1538 1538 1538 1539 1539 1540 1541 1541 1542 1543 1544 1544 1545 1546 1547 1548 1549 1550 1551 1551
1499 1493 1500 1504 1510 1513 1516 1518 1518 1519 1522 1525 1527 1529 1536 1539 1540 1540 1540 1540 1541 1541 1542 1542 1542 1541 1541 1541 1541 1541 1542 1542 1542 1543 1543 1544 1544 1545 1546 1546 1547 1547 1548 1549 1550 1550 1551 1552 1552
1500 1494 1499 1503 1509 1514 1518 1520 1521 1522 1525 1529 1529 1530 1536 1540 1541 1541 1542 1542 1543 1544 1544 1544 1545 1545 1545 1545 1544 1544 1545 1545 1545 1546 1546 1546 1547 1547 1548 1548 1549 1549 1550 1551 1551 1552 1552 1553 1554
1501 1497 1503 1504 1508 1513 1518 1520 1523 1525 1528 1530 1532 1533 1537 1540 1542 1543 1543 1544 1545 1545 1546 1547 1547 1548 1548 1549 1548 1548 1548 1548 1548 1549 1549 1549 1551 1551 1551 1550 1551 1551 1552 1552 1552 1553 1553 1554 1555
1500 1500 1505 1506 1507 1512 1517 1520 1523 1525 1528 1531 1535 1538 1540 1541 1543 1544 1545 1546 1547 1547 1548 1549 1549 1550 1550 1551 1550 1551 1551 1551 1551 1551 1551 1552 1552 1552 1553 1552 1552 1552 1553 1553 1553 1553 1554 1555 1557
1501 1503 1506 1509 1512 1514 1517 1521 1523 1523 1527 1531 1535 1539 1541 1543 1544 1545 1546 1547 1548 1549 1550 1550 1550 1551 1552 1552 1553 1553 1553 1553 1553 1553 1553 1553 1554 1554 1554 1554 1554 1554 1554 1555 1555 1555 1556 1557 1557
1505 1507 1509 1512 1515 1516 1519 1521 1524 1525 1529 1533 1537 1539 1542 1544 1545 1546 1547 1548 1549 1550 1551 1551 1552 1552 1552 1554 1554 1555 1555 1555 1555 1554 1555 1555 1555 1555 1555 1555 1555 1555 1555 1555 1556 1556 1556 1556 1557
1506 1509 1512 1515 1517 1518 1520 1522 1525 1529 1533 1536 1538 1541 1543 1544 1546 1548 1549 1550 1551 1551 1552 1552 1552 1553 1553 1554 1555 1556 1556 1557 1556 1556 1556 1556 1556 1556 1556 1555 1555 1556 1556 1556 1556 1556 1556 1556 1557
1508 1510 1513 1515 1517 1520 1521 1524 1526 1531 1534 1537 1539 1542 1544 1545 1547 1548 1549 1550 1551 1552 1553 1553 1553 1553 1554 1555 1555 1556 1557 1557 1558 1557 1557 1557 1557 1557 1556 1556 1556 1556 1556 1556 1556 1556 1556 1556 1557
1509 1509 1512 1515 1517 1519 1520 1523 1525 1531 1534 1537 1539 1542 1544 1546 1548 1549 1550 1551 1552 1553 1553 1554 1554 1554 1555 1556 1556 1557 1558 1558 1558 1558 1558 1557 1558 1557 1557 1557 1557 1556 1556 1556 1556 1556 1556 1556 1556
1506 1506 1511 1514 1515 1519 1518 1523 1525 1531 1533 1536 1539 1541 1544 1546 1547 1549 1550 1551 1552 1553 1553 1554 1555 1555 1556 1556 1556 1558 1558 1558 1558 1558 1558 1558 1557 1557 1557 1557 1557 1556 1556 1556 1556 1556 1556 1556 1556
1504 1507 1509 1513 1513 1515 1515 1518 1524 1529 1532 1534 1537 1540 1542 1545 1547 1548 1549 1551 1552 1552 1553 1554 1555 1556 1556 1557 1557 1557 1558 1558 1558 1559 1558 1558 1557 1557 1557 1557 1556 1556 1556 1556 1556 1556 1555 1555 1555
1506 1506 1507 1510 1511 1513 1513 1514 1521 1527 1529 1531 1535 1538 1540 1542 1545 1547 1548 1550 1551 1552 1553 1554 1554 1555 1556 1557 1557 1558 1558 1558 1558 1558 1558 1558 1558 1557 1557 1557 1556 1556 1556 1556 1555 1555 1554 1554 1554
1500 1503 1507 1508 1509 1511 1512 1513 1517 1523 1527 1528 1531 1534 1537 1540 1543 1545 1547 1549 1550 1551 1552 1553 1554 1554 1555 1557 1557 1558 1558 1559 1559 1559 1558 1558 1557 1557 1557 1557 1556 1556 1556 1555 1555 1555 1554 1554 1553
1501 1505 1507 1508 1509 1510 1511 1512 1513 1519 1522 1525 1528 1531 1534 1537 1541 1543 1545 1547 1548 1550 1551 1552 1553 1554 1554 1555 1556 1557 1557 1558 1558 1558 1558 1557 1557 1557 1557 1556 1556 1555 1555 1554 1554 1553 1554 1554 1553
1502 1504 1505 1509 1510 1508 1510 1513 1512 1515 1519 1522 1525 1528 1530 1534 1537 1540 1542 1545 1546 1548 1549 1551 1551 1552 1553 1554 1556 1556 1556 1557 1558 1558 1557 1557 1557 1556 1556 1555 1555 1554 1554 1554 1553 1553 1553 1553 1552
1505 1500 1502 1506 1511 1510 1511 1518 1510 1509 1513 1517 1520 1523 1526 1530 1533 1537 1539 1542 1544 1546 1547 1549 1550 1551 1552 1553 1555 1556 1556 1557 1557 1557 1557 1556 1556 1556 1555 1554 1554 1553 1554 1553 1553 1552 1552 1551 1551
1500 1500 1502 1504 1507 1509 1508 1512 1507 1505 1509 1510 1514 1518 1521 1525 1529 1533 1536 1539 1541 1543 1545 1547 1548 1549 1551 1552 1553 1554 1555 1556 1556 1556 1556 1555 1555 1554 1554 1554 1553 1552 1552 1552 1551 1551 1550 1550 1550
1500 1503 1505 1504 1503 1518 1510 1512 1510 1501 1503 1503 1508 1513 1517 1522 1526 1530 1533 1536 1539 1541 1543 1545 1546 1547 1549 1550 1551 1552 1553 1554 1555 1555 1555 1555 1555 1554 1553 1553 1552 1552 1552 1551 1550 1550 1549 1548 1548
1500 1506 1517 1520 1518 1516 1504 1510 1507 1496 1498 1500 1504 1508 1513 1518 1522 1526 1530 1533 1535 1538 1540 1542 1543 1545 1547 1548 1549 1550 1551 1552 1552 1553 1554 1554 1554 1554 1552 1552 1551 1551 1550 1550 1549 1548 1548 1547 1546
1497 1498 1514 1524 1520 1510 1507 1509 1499 1494 1498 1501 1503 1506 1510 1514 1518 1522 1526 1529 1532 1535 1537 1539 1541 1543 1544 1546 1547 1548 1549 1551 1552 1551 1552 1552 1553 1552 1551 1551 1550 1550 1549 1549 1548 1548 1547 1546 1545
1495 1494 1490 1500 1505 1511 1505 1501 1495 1494 1497 1499 1502 1504 1507 1511 1515 1519 1523 1526 1529 1532 1534 1537 1538 1540 1542 1543 1545 1546 1547 1548 1549 1550 1550 1551 1550 1551 1550 1550 1549 1549 1548 1548 1547 1546 1545 1544 1544
1487 1488 1494 1502 1517 1519 1510 1505 1500 1496 1495 1496 1499 1502 1505 1509 1512 1516 1520 1523 1526 1529 1532 1534 1536 1538 1539 1541 1543 1544 1545 1546 1547 1548 1548 1548 1549 1549 1549 1548 1548 1548 1547 1546 1546 1546 1544 1543 1542
1491 1492 1492 1494 1498 1509 1515 1505 1487 1491 1492 1494 1497 1500 1503 1506 1509 1513 1517 1520 1524 1527 1529 1531 1534 1535 1537 1539 1540 1542 1543 1544 1545 1545 1546 1547 1547 1547 1547 1547 1547 1546 1546 1545 1544 1544 1543 1542 1541
1483 1486 1490 1501 1505 1501 1502 1501 1485 1488 1491 1494 1496 1499 1502 1505 1508 1511 1514 1518 1521 1524 1526 1528 1531 1533 1534 1536 1537 1539 1540 1541 1543 1543 1544 1545 1545 1545 1545 1545 1545 1545 1545 1544 1543 1542 1542 1541 1540